Погода в Гимрах

Россия / Республика Дагестан     42°45′29″N   46°50′28″E
темп.,
°C
ветер,
м/с
пор.,
м/с
влажн.,
%
обл.,
%
осадки,
мм/ч
давл.,
гПа
погр.,
м
14 июня, пн
пн1400:00+11з22890 0.0 101414
03:00+10зюз32880 0.0 101420
06:00+13зюз23790 0.0 1014116
09:00+17ссв11600 0.0 1012827
12:00+20св325718 0.0 10111376
15:00+20всв336547 0.1 10121084
18:00+18всв327439 0.1 1013459
21:00+14в11870 0.1 101310
15 июня, вт
вт1500:00+13ююз11890 0.0 101311
03:00+12юз32850 0.0 101122
06:00+15юз33690 0.0 101088
09:00+21ссз1150100 0.0 1008620
12:00+22всв436114 0.2 1009633
15:00+22св436810 1.1 1009733
18:00+19всв22784 1.1 1011237
21:00+15юз11880 1.5 101311
16 июня, ср
ср1600:00+14зюз11860 0.0 101311
03:00+14зюз22860 0.0 101315
06:00+16юз22760 0.0 101382
09:00+22вюв22540 0.0 1011608
12:00+25в33470 0.0 1009900
15:00+26всв32540 0.0 1008899
18:00+23всв22690 0.0 1009160
21:00+19зюз11810 0.0 101011
17 июня, чт
чт1700:00+17зюз22760 0.0 100917
03:00+15зюз33680 0.0 101023
06:00+18зюз33660 0.0 100978
09:00+24юз12430 0.0 1007541
12:00+28св32380 0.0 10061290
15:00+25св436459 0.3 10081152
18:00+21с227515 10.8 1012139
21:00+16зсз22860 12.3 101523
18 июня, пт
пт1800:00+15з33890 1.9 101645
03:00+14з33891 1.9 101634
06:00+16з33844 0.4 1017134
09:00+20сз11640 0.9 1016828
12:00+21ссв226418 4.2 10161037
15:00+20ссв227060 11.1 1017455
18:00+18св227716 7.6 1019244
21:00+16с119133 8.7 102120